Time,TemperatureF,DewpointF,PressureIn,WindDirection,WindDirectionDegrees,WindSpeedMPH,WindSpeedGustMPH,Humidity,HourlyPrecipIn,Conditions,Clouds,dailyrainin,SoftwareType,DateUTC
2013-06-13 00:01:00,72.0,69.0,30.04,SSE,153,0.0,0.0,91,0.00,,,0.43,,2013-06-13 04:01:00,
2013-06-13 00:12:00,72.0,69.0,30.03,SSE,153,0.0,0.0,91,0.00,,,0.43,,2013-06-13 04:12:00,
2013-06-13 00:22:00,72.0,69.0,30.03,SSE,153,0.0,0.0,91,0.00,,,0.43,,2013-06-13 04:22:00,
2013-06-13 00:32:00,72.0,69.0,30.03,SSE,153,0.0,0.0,91,0.00,,,0.43,,2013-06-13 04:32:00,
2013-06-13 00:42:00,71.0,68.0,30.03,SSE,153,0.0,0.0,91,0.00,,,0.43,,2013-06-13 04:42:00,
2013-06-13 00:43:00,71.0,68.0,30.03,SSE,153,0.0,0.0,91,0.00,,,0.43,,2013-06-13 04:43:00,
2013-06-13 00:53:00,71.0,68.0,30.03,SSE,153,0.0,0.0,91,0.00,,,0.43,,2013-06-13 04:53:00,
2013-06-13 01:02:00,71.0,68.0,30.03,SSE,153,0.0,0.0,91,0.00,,,0.43,,2013-06-13 05:02:00,
2013-06-13 01:12:00,71.0,68.0,30.03,SSE,153,0.0,0.0,91,0.00,,,0.43,,2013-06-13 05:12:00,
2013-06-13 01:24:00,71.0,68.0,30.03,SSE,153,0.0,0.0,91,0.00,,,0.43,,2013-06-13 05:24:00,
2013-06-13 01:33:00,71.0,68.0,30.03,SSE,153,0.0,0.0,91,0.00,,,0.43,,2013-06-13 05:33:00,
2013-06-13 02:22:00,70.0,68.0,30.01,SSE,153,0.0,0.0,92,0.00,,,0.43,,2013-06-13 06:22:00,
2013-06-13 02:33:00,70.0,68.0,30.01,SSE,153,0.0,0.0,92,0.00,,,0.43,,2013-06-13 06:33:00,
2013-06-13 02:44:00,70.0,68.0,30.01,SSE,153,0.0,0.0,92,0.00,,,0.43,,2013-06-13 06:44:00,
2013-06-13 02:52:00,70.0,68.0,30.01,SSE,153,0.0,0.0,92,0.00,,,0.43,,2013-06-13 06:52:00,
2013-06-13 03:01:00,70.0,68.0,30.01,SSE,153,0.0,0.0,92,0.00,,,0.43,,2013-06-13 07:01:00,
2013-06-13 03:12:00,70.0,68.0,30.01,SSE,153,0.0,0.0,92,0.00,,,0.43,,2013-06-13 07:12:00,
2013-06-13 03:22:00,70.0,68.0,30.01,SSE,153,0.0,0.0,92,0.00,,,0.43,,2013-06-13 07:22:00,
2013-06-13 03:33:00,70.0,68.0,30.01,SSE,153,0.0,0.0,92,0.00,,,0.43,,2013-06-13 07:33:00,
2013-06-13 03:42:00,70.0,68.0,30.01,SSE,153,0.0,0.0,92,0.00,,,0.43,,2013-06-13 07:42:00,
2013-06-13 03:52:00,70.0,68.0,30.00,SSE,153,0.0,0.0,92,0.00,,,0.43,,2013-06-13 07:52:00,
2013-06-13 04:01:00,70.0,68.0,30.01,SSE,153,0.0,0.0,92,0.00,,,0.43,,2013-06-13 08:01:00,
2013-06-13 04:02:00,69.0,67.0,30.00,SSE,153,0.0,0.0,92,0.00,,,0.42,,2013-06-13 08:02:00,
2013-06-13 04:11:00,70.0,68.0,30.01,SSE,153,0.0,0.0,92,0.00,,,0.43,,2013-06-13 08:11:00,
2013-06-13 04:22:00,69.0,67.0,30.00,SSE,153,0.0,0.0,92,0.00,,,0.42,,2013-06-13 08:22:00,
2013-06-13 04:32:00,69.0,67.0,30.00,SSE,153,0.0,0.0,92,0.00,,,0.42,,2013-06-13 08:32:00,
2013-06-13 04:43:00,69.0,67.0,30.00,SSE,153,0.0,0.0,92,0.00,,,0.42,,2013-06-13 08:43:00,
2013-06-13 04:52:00,69.0,67.0,30.00,SSE,153,0.0,0.0,92,0.00,,,0.42,,2013-06-13 08:52:00,
2013-06-13 05:32:00,69.0,67.0,29.98,SSE,153,0.0,0.0,92,0.00,,,0.42,,2013-06-13 09:32:00,
2013-06-13 05:42:00,69.0,67.0,29.98,SSE,153,0.0,0.0,92,0.00,,,0.42,,2013-06-13 09:42:00,
2013-06-13 05:52:00,69.0,67.0,29.98,SSE,153,0.0,0.0,92,0.00,,,0.42,,2013-06-13 09:52:00,
2013-06-13 06:01:00,69.0,67.0,29.98,SSE,153,0.0,0.0,92,0.00,,,0.42,,2013-06-13 10:01:00,
2013-06-13 06:11:00,69.0,67.0,29.98,SSE,153,0.0,0.0,92,0.00,,,0.42,,2013-06-13 10:11:00,
2013-06-13 06:22:00,69.0,67.0,29.98,SSE,153,0.0,0.0,92,0.00,,,0.42,,2013-06-13 10:22:00,
2013-06-13 06:33:00,68.0,66.0,29.98,SSE,153,0.0,0.0,92,0.00,,,0.42,,2013-06-13 10:33:00,
2013-06-13 06:43:00,68.0,66.0,29.98,SSE,153,0.0,0.0,92,0.00,,,0.42,,2013-06-13 10:43:00,
2013-06-13 06:53:00,68.0,66.0,29.98,SSE,153,0.0,0.0,92,0.00,,,0.42,,2013-06-13 10:53:00,
2013-06-13 07:02:00,68.0,66.0,29.99,SSE,153,0.0,0.0,92,0.00,,,0.42,,2013-06-13 11:02:00,
2013-06-13 07:12:00,68.0,66.0,29.99,SSE,153,0.0,0.0,92,0.00,,,0.42,,2013-06-13 11:12:00,
2013-06-13 07:23:00,69.0,67.0,29.99,SSE,153,0.0,0.0,93,0.00,,,0.42,,2013-06-13 11:23:00,
2013-06-13 07:32:00,69.0,67.0,29.99,SSE,153,0.0,0.0,93,0.00,,,0.42,,2013-06-13 11:32:00,
2013-06-13 07:42:00,69.0,67.0,30.00,SSE,153,0.0,0.0,93,0.00,,,0.42,,2013-06-13 11:42:00,
2013-06-13 07:52:00,69.0,67.0,30.00,SSE,153,0.0,0.0,93,0.00,,,0.42,,2013-06-13 11:52:00,
2013-06-13 08:01:00,69.0,67.0,30.00,SSE,153,0.0,0.0,93,0.00,,,0.42,,2013-06-13 12:01:00,
2013-06-13 08:12:00,72.0,70.0,30.00,SSE,153,0.0,0.0,93,0.00,,,0.42,,2013-06-13 12:12:00,
2013-06-13 08:22:00,72.0,70.0,30.00,SSE,153,0.0,0.0,93,0.00,,,0.42,,2013-06-13 12:22:00,
2013-06-13 08:35:00,72.0,70.0,30.01,SSE,153,0.0,0.0,93,0.00,,,0.42,,2013-06-13 12:35:00,
2013-06-13 08:43:00,72.0,70.0,30.01,SSE,153,0.0,0.0,93,0.00,,,0.42,,2013-06-13 12:43:00,
2013-06-13 08:52:00,72.0,70.0,30.01,SSE,153,0.0,0.0,93,0.00,,,0.42,,2013-06-13 12:52:00,
2013-06-13 09:01:00,72.0,70.0,30.01,SSE,153,0.0,0.0,93,0.00,,,0.42,,2013-06-13 13:01:00,
2013-06-13 09:11:00,72.0,70.0,30.01,SSE,153,0.0,0.0,93,0.00,,,0.42,,2013-06-13 13:11:00,
2013-06-13 09:43:00,78.0,75.0,30.03,SSE,153,0.0,1.0,92,0.00,,,0.42,,2013-06-13 13:43:00,
2013-06-13 09:53:00,78.0,75.0,30.03,SSE,153,0.0,1.0,92,0.00,,,0.42,,2013-06-13 13:53:00,
2013-06-13 10:02:00,78.0,75.0,30.03,SSE,153,0.0,1.0,92,0.00,,,0.42,,2013-06-13 14:02:00,
2013-06-13 10:11:00,78.0,75.0,30.03,SSE,153,0.0,1.0,92,0.00,,,0.42,,2013-06-13 14:11:00,
2013-06-13 10:22:00,82.0,76.0,30.03,SSE,153,0.0,1.0,83,0.00,,,0.42,,2013-06-13 14:22:00,
2013-06-13 10:33:00,84.0,78.0,30.03,SSE,153,0.0,1.0,81,0.00,,,0.42,,2013-06-13 14:33:00,
2013-06-13 10:43:00,84.0,78.0,30.03,SSE,153,0.0,1.0,81,0.00,,,0.42,,2013-06-13 14:43:00,
2013-06-13 10:53:00,86.0,77.0,30.03,WSW,244,0.0,1.0,75,0.00,,,0.42,,2013-06-13 14:53:00,
2013-06-13 11:02:00,87.0,77.0,30.03,NW,309,1.0,4.0,73,0.00,,,0.42,,2013-06-13 15:02:00,
2013-06-13 11:12:00,88.0,75.0,30.03,WNW,298,0.0,4.0,66,0.00,,,0.42,,2013-06-13 15:12:00,
2013-06-13 11:22:00,89.0,75.0,30.03,WNW,298,0.0,1.0,63,0.00,,,0.42,,2013-06-13 15:22:00,
2013-06-13 11:33:00,89.0,75.0,30.03,West,265,1.0,3.0,64,0.00,,,0.42,,2013-06-13 15:33:00,
2013-06-13 11:43:00,89.0,75.0,30.03,West,265,1.0,3.0,64,0.00,,,0.42,,2013-06-13 15:43:00,
2013-06-13 11:53:00,89.0,75.0,30.03,West,265,1.0,3.0,64,0.00,,,0.42,,2013-06-13 15:53:00,
2013-06-13 12:02:00,90.0,75.0,30.02,ENE,69,0.0,3.0,61,0.00,,,0.42,,2013-06-13 16:02:00,
2013-06-13 12:12:00,90.0,75.0,30.02,ENE,69,0.0,3.0,61,0.00,,,0.42,,2013-06-13 16:12:00,
2013-06-13 12:22:00,90.0,75.0,30.02,WNW,288,0.0,1.0,61,0.00,,,0.42,,2013-06-13 16:22:00,
2013-06-13 12:33:00,90.0,75.0,30.02,WNW,288,0.0,1.0,61,0.00,,,0.42,,2013-06-13 16:33:00,
2013-06-13 12:43:00,90.0,75.0,30.02,WNW,288,0.0,1.0,61,0.00,,,0.42,,2013-06-13 16:43:00,
2013-06-13 12:54:00,90.0,75.0,30.02,WNW,288,0.0,1.0,61,0.00,,,0.42,,2013-06-13 16:54:00,
2013-06-13 13:25:00,92.0,75.0,30.01,North,355,1.0,1.0,58,0.00,,,0.42,,2013-06-13 17:25:00,
2013-06-13 13:33:00,92.0,75.0,30.01,North,355,1.0,1.0,58,0.00,,,0.42,,2013-06-13 17:33:00,
2013-06-13 14:02:00,92.0,76.0,29.99,North,355,0.0,4.0,59,0.00,,,0.42,,2013-06-13 18:02:00,
2013-06-13 14:11:00,92.0,76.0,29.99,North,355,0.0,4.0,59,0.00,,,0.42,,2013-06-13 18:11:00,
2013-06-13 14:22:00,92.0,76.0,29.99,North,355,0.0,4.0,59,0.00,,,0.42,,2013-06-13 18:22:00,
2013-06-13 14:33:00,93.0,74.0,29.99,NW,321,0.0,9.0,54,0.00,,,0.42,,2013-06-13 18:33:00,
2013-06-13 14:43:00,92.0,72.0,29.98,WNW,286,1.0,9.0,53,0.00,,,0.42,,2013-06-13 18:43:00,
2013-06-13 14:52:00,92.0,72.0,29.98,WNW,286,1.0,9.0,53,0.00,,,0.42,,2013-06-13 18:52:00,
2013-06-13 15:01:00,88.0,75.0,30.00,ESE,103,5.0,5.0,66,0.00,,,0.42,,2013-06-13 19:01:00,
2013-06-13 15:11:00,88.0,75.0,30.00,ESE,103,5.0,5.0,66,0.00,,,0.42,,2013-06-13 19:11:00,
2013-06-13 15:22:00,82.0,74.0,30.00,SE,142,3.0,7.0,77,0.00,,,0.42,,2013-06-13 19:22:00,
2013-06-13 15:33:00,80.0,73.0,30.00,South,188,0.0,7.0,80,0.00,,,0.42,,2013-06-13 19:33:00,
2013-06-13 15:43:00,79.0,74.0,29.99,SSE,163,0.0,7.0,84,0.03,,,0.45,,2013-06-13 19:43:00,
2013-06-13 15:53:00,78.0,73.0,29.99,SSE,163,0.0,0.0,86,0.04,,,0.45,,2013-06-13 19:53:00,
2013-06-13 16:02:00,78.0,74.0,29.98,SSE,163,0.0,0.0,87,0.04,,,0.45,,2013-06-13 20:02:00,
2013-06-13 16:11:00,78.0,74.0,29.98,SSE,163,0.0,0.0,87,0.04,,,0.45,,2013-06-13 20:11:00,
2013-06-13 16:22:00,78.0,74.0,29.98,SSE,163,0.0,0.0,88,0.04,,,0.13,,2013-06-13 20:22:00,
2013-06-13 16:33:00,78.0,74.0,29.98,SSE,163,0.0,0.0,88,0.04,,,0.13,,2013-06-13 20:33:00,
2013-06-13 16:44:00,79.0,75.0,29.98,SW,236,0.0,3.0,87,0.04,,,0.13,,2013-06-13 20:44:00,
2013-06-13 16:53:00,79.0,75.0,29.98,SW,236,0.0,3.0,87,0.04,,,0.13,,2013-06-13 20:53:00,
2013-06-13 17:02:00,80.0,76.0,29.95,WSW,244,0.0,1.0,87,0.00,,,0.07,,2013-06-13 21:02:00,
2013-06-13 17:11:00,80.0,76.0,29.95,WSW,244,0.0,1.0,87,0.00,,,0.07,,2013-06-13 21:11:00,
2013-06-13 17:22:00,81.0,77.0,29.95,WSW,249,0.0,1.0,87,0.00,,,0.06,,2013-06-13 21:22:00,
2013-06-13 17:34:00,81.0,77.0,29.95,WSW,249,0.0,1.0,87,0.00,,,0.06,,2013-06-13 21:34:00,
2013-06-13 17:43:00,81.0,76.0,29.94,SW,236,0.0,3.0,86,0.00,,,0.06,,2013-06-13 21:43:00,
2013-06-13 17:52:00,82.0,77.0,29.94,SW,236,0.0,0.0,85,0.00,,,0.06,,2013-06-13 21:52:00,
2013-06-13 18:02:00,82.0,77.0,29.94,SW,236,0.0,0.0,85,0.00,,,0.06,,2013-06-13 22:02:00,
2013-06-13 18:11:00,82.0,76.0,29.94,WNW,291,0.0,4.0,83,0.00,,,0.06,,2013-06-13 22:11:00,
2013-06-13 18:22:00,82.0,76.0,29.94,WNW,291,0.0,4.0,83,0.00,,,0.06,,2013-06-13 22:22:00,
2013-06-13 18:33:00,82.0,76.0,29.94,WNW,291,0.0,4.0,83,0.00,,,0.06,,2013-06-13 22:33:00,
2013-06-13 18:43:00,81.0,76.0,29.93,WNW,292,0.0,0.0,85,0.00,,,0.05,,2013-06-13 22:43:00,
2013-06-13 18:52:00,81.0,76.0,29.93,WNW,292,0.0,0.0,85,0.00,,,0.05,,2013-06-13 22:52:00,
2013-06-13 19:02:00,81.0,75.0,29.93,WNW,292,0.0,0.0,83,0.00,,,0.05,,2013-06-13 23:02:00,
2013-06-13 19:11:00,81.0,75.0,29.93,WNW,292,0.0,0.0,83,0.00,,,0.05,,2013-06-13 23:11:00,
2013-06-13 19:22:00,81.0,76.0,29.93,SSE,156,0.0,1.0,85,0.00,,,0.04,,2013-06-13 23:22:00,
2013-06-13 19:32:00,81.0,76.0,29.93,SSE,156,0.0,1.0,86,0.00,,,0.04,,2013-06-13 23:32:00,
2013-06-13 19:43:00,80.0,75.0,29.93,South,180,0.0,1.0,86,0.00,,,0.04,,2013-06-13 23:43:00,
2013-06-13 19:52:00,80.0,75.0,29.93,South,180,0.0,1.0,86,0.00,,,0.04,,2013-06-13 23:52:00,
2013-06-13 20:01:00,80.0,75.0,29.93,South,180,0.0,1.0,86,0.00,,,0.04,,2013-06-14 00:01:00,
2013-06-13 20:12:00,80.0,75.0,29.93,South,180,0.0,1.0,86,0.00,,,0.04,,2013-06-14 00:12:00,
2013-06-13 20:22:00,78.0,74.0,29.94,ESE,120,0.0,1.0,88,0.00,,,0.04,,2013-06-14 00:22:00,
2013-06-13 20:34:00,78.0,74.0,29.94,ESE,121,0.0,1.0,88,0.00,,,0.04,,2013-06-14 00:34:00,
2013-06-13 20:43:00,78.0,74.0,29.95,ESE,121,0.0,1.0,88,0.00,,,0.04,,2013-06-14 00:43:00,
2013-06-13 20:53:00,77.0,74.0,29.95,ESE,121,0.0,0.0,89,0.00,,,0.04,,2013-06-14 00:53:00,
2013-06-13 21:01:00,77.0,74.0,29.95,ESE,121,0.0,0.0,89,0.00,,,0.04,,2013-06-14 01:01:00,
2013-06-13 21:11:00,77.0,74.0,29.94,ESE,123,0.0,1.0,89,0.00,,,0.04,,2013-06-14 01:11:00,
2013-06-13 21:22:00,77.0,74.0,29.94,ESE,123,0.0,1.0,89,0.00,,,0.04,,2013-06-14 01:22:00,
2013-06-13 21:32:00,76.0,73.0,29.94,ESE,123,0.0,0.0,89,0.00,,,0.04,,2013-06-14 01:32:00,
2013-06-13 21:43:00,76.0,73.0,29.94,ESE,123,0.0,0.0,89,0.00,,,0.04,,2013-06-14 01:43:00,
2013-06-13 21:52:00,76.0,73.0,29.94,ESE,123,0.0,0.0,89,0.00,,,0.04,,2013-06-14 01:52:00,
2013-06-13 22:02:00,76.0,73.0,29.94,ESE,123,0.0,0.0,89,0.00,,,0.04,,2013-06-14 02:02:00,
2013-06-13 22:11:00,76.0,73.0,29.93,ESE,123,0.0,0.0,89,0.00,,,0.04,,2013-06-14 02:11:00,
2013-06-13 22:22:00,76.0,73.0,29.93,ESE,123,0.0,0.0,89,0.00,,,0.04,,2013-06-14 02:22:00,
2013-06-13 22:32:00,76.0,73.0,29.93,ESE,123,0.0,0.0,90,0.00,,,0.04,,2013-06-14 02:32:00,
2013-06-13 22:43:00,76.0,73.0,29.94,ESE,123,0.0,0.0,90,0.00,,,0.04,,2013-06-14 02:43:00,
2013-06-13 22:52:00,75.0,72.0,29.94,ESE,123,0.0,0.0,90,0.00,,,0.04,,2013-06-14 02:52:00,
2013-06-13 23:02:00,75.0,72.0,29.95,ESE,123,0.0,0.0,90,0.00,,,0.04,,2013-06-14 03:02:00,
2013-06-13 23:12:00,75.0,72.0,29.95,ESE,123,0.0,0.0,90,0.00,,,0.04,,2013-06-14 03:12:00,
2013-06-13 23:22:00,75.0,72.0,29.96,ESE,123,0.0,0.0,90,0.00,,,0.04,,2013-06-14 03:22:00,
2013-06-13 23:34:00,75.0,72.0,29.96,ESE,123,0.0,0.0,90,0.00,,,0.04,,2013-06-14 03:34:00,
2013-06-13 23:43:00,74.0,71.0,29.95,ESE,123,0.0,0.0,90,0.00,,,0.04,,2013-06-14 03:43:00,
2013-06-13 23:53:00,74.0,71.0,29.96,ESE,123,0.0,0.0,90,0.00,,,0.04,,2013-06-14 03:53:00,